Rechercher aéroport 
image banner adimage banner adimage banner ad
image banner ad

CL76 - U S Naval Hospital San Diego

Situé à San Diego, United States

ICAO - CL76, IATA -

Données fournies par Airmate  

Information générale

Coordonnées: N32°43'30" W117°8'39"
Élévation : 200 feet MSL.
Variation magnétique : 13° East
Voir autres Aéroports à California

Données opérationnelles

Special qualification required
Heure actuelle UTC:
Heure actuelle locale:
Météo à : KSAN - San Diego Intl ( 4 km )
METAR: KSAN 180751Z VRB03KT 10SM BKN120 20/14 A3004 RMK AO2 SLP171 T02000144 402390194
TAF: KSAN 180606Z 1806/1912 VRB04KT P6SM BKN140 TEMPO 1806/1810 BKN018 FM181000 VRB04KT P6SM BKN018 FM181800 28005KT P6SM SCT025 SCT150 FM182000 29010KT P6SM FEW025 SCT150 FM190300 VRB04KT P6SM SCT018 FM190500 VRB04KT P6SM BKN018
Voir NOTAMs / SUP AIP / TFR affectant cet aéroport [VIEW]
Fréquences de communication: [VIEW]

Pistes:

Coordonnées de l'aéroport

Adresse: San Diego United States

Vue satellite de CL76